Home   Weather   Port Laoise   Past weeks
Flag for Ireland

Past Weather in Port Laoise, Ireland — Yesterday and Last 2 Weeks

Now
58 °F

Cool.


Feels Like: 58 °F
Forecast: 62 / 46 °F
Wind: 1 mph from Northwest

Location: Mullingar

Current Time: May 24, 2019 at 10:23:37 pm

Latest Report: May 24, 2019 at 9:00 pm


Visibility: 22 mi

Pressure: 30.11 "Hg

Humidity: 81%

Dew Point: 52 °F

Location of Port LaoiseLocation

Past Weather in Port Laoise — Graph

°F

Port Laoise Temperature Yesterday

Maximum temperature yesterday: 63 °F (at 2:00 pm)
Minimum temperature yesterday: 51 °F (at 4:00 am)
Average temperature yesterday: 56 °F

High & Low Weather Summary for the Past Weeks

 TemperatureHumidityPressure
High67 °F (May 15, 3:00 pm)99% (May 10, 7:00 am)30.62 "Hg (May 10, 7:00 am)
Low35 °F (May 21, 5:00 am)29% (May 14, 12:00 pm)29.62 "Hg (May 9, 8:00 pm)
Average52 °F72%30.12 "Hg
* Reported May 9 8:00 pm — May 24 8:00 pm, Port Laoise. Weather by CustomWeather, © 2019

Note: Actual official high and low records may vary slightly from our data, if they occured in-between our weather recording intervals... More about our weather records

Advertising

Port Laoise Weather History for the Previous 24 Hours

Scroll right to see more
 ConditionsComfort  
Time TempWeatherWind HumidityBarometerVisibility
8:00 pm
Fri, May 24
59 °FCool.1 mph84%30.11 "Hg31 mi
7:00 pm60 °FCool.2 mph80%30.10 "Hg31 mi
6:00 pm61 °FCool.3 mph74%30.10 "Hg28 mi
5:00 pm60 °FCool.2 mph73%30.11 "Hg31 mi
4:00 pm62 °FCool.3 mph72%30.11 "Hg28 mi
3:00 pm62 °FCool.3 mph70%30.11 "Hg22 mi
2:00 pm62 °FCool.3 mph69%30.11 "Hg22 mi
1:00 pm61 °FCool.2 mph69%30.11 "Hg25 mi
12:00 pm60 °FCool.2 mph70%30.10 "Hg28 mi
11:00 am60 °FCool.2 mph74%30.09 "Hg25 mi
10:00 am58 °FCool.2 mph80%30.10 "Hg28 mi
9:00 am57 °FCool.2 mph81%30.10 "Hg28 mi
8:00 am54 °FCool.2 mph86%30.10 "Hg28 mi
7:00 am53 °FCool.1 mph90%30.09 "Hg28 mi
6:00 am51 °FCool.1 mph94%30.08 "Hg14 mi
5:00 am52 °FCool.1 mph93%30.07 "Hg19 mi
4:00 am52 °FCool.2 mph93%30.08 "Hg19 mi
3:00 am52 °FCool.2 mph92%30.08 "Hg9 mi
2:00 am53 °FCool.2 mph91%30.07 "Hg12 mi
1:00 am54 °FCool.2 mph89%30.06 "Hg14 mi
12:00 am56 °FCool.2 mph87%30.05 "Hg28 mi
11:00 pm
Thu, May 23
56 °FCool.1 mph87%30.05 "Hg31 mi
10:00 pm57 °FCool.1 mph85%30.04 "Hg31 mi
Weather by CustomWeather, © 2019

See weather overview